Calicut International Airport

Jump to: basic info | weather | frequencies | runways | comments

Related pages: nearby airports | nearby navaids | notams | map

Basic information (top)

Codes: CCJ VOCL
Location: lon 11.136800, lat 75.955299, elev 342 ft / 104 m msl
Status: large_airport
Scheduled airline service: yes
Links: Wikipedia Mobile

Weather (top)

Current conditions (rec'd 2014/07/25 08:00Z):

VOCL 250800Z 30008KT 6000 FEW010 SCT012 FEW025CB OVC080 28/24 Q1011 NOSIG

Airport forecast (rec'd 2014/07/24 00:00Z):

TAF VOCL 242100Z 2500/2606 09005KT 5000 HZ SCT012 BKN080 
      TEMPO 2500/2503 3000 RA/DZ SCT006 FEW025CB OVC080 
      BECMG 2504/2505 32005KT 6000 
      TEMPO 2510/2515 3000 TSRA/RA SCT008 FEW025CB BKN080 
      BECMG 2516/2517 34005KT 4000 HZ 
      TEMPO 2523/2603 2000 RA/DZ SCT006 FEW025CB OVC080 
      BECMG 2604/2605 29005KT 6000

Frequencies (top)

Verify before use: may be inaccurate or out of date.

ATIS: 127 MHz (ATIS)
TWR: 122.95 MHz (TWR)

Runways (top)

10/28: 9,383 x 150 ft (2,860 x 46 m) — paved — lighted

Latest comments (top)

Moideenkutty oorakam ( CCJ ): Calicut int airport ( Terminal,1 - ... [read]

Info: Calicut International Airport ... [read]

More... (top)

See also NOTAMs and nearby airports and navaids, or visit the Calicut International Airport page at the main OurAirports website..